Weather History for Cody, WY

Change the Weather History Date:

Tuesday, December 4, 2012

  Actual Average Record
Temperature  
Mean Temperature 42 °F -  
Max Temperature 51 °F 40 °F 64 °F (1918)
Min Temperature 32 °F 23 °F -11 °F (1972)
Degree Days  
Heating Degree Days 24    
Moisture  
Dew Point 22 °F    
Average Humidity 43    
Maximum Humidity 51    
Minimum Humidity 35    
Precipitation  
Precipitation 0.00 in - - ()
Sea Level Pressure  
Sea Level Pressure 30.06 in    
Wind  
Wind Speed 14 mph (SSW)    
Max Wind Speed 28 mph    
Max Gust Speed 39 mph    
Visibility 10 miles    
Events      
Averages and records for this station are not official NWS values.
T = Trace of Precipitation, MM = Missing Value Source: NWS Daily Summary

Daily Weather History Graph

Daily Weather History Graph

Search for Another Location

Airport:

Trip Planner

Search our weather history database for the weather conditions in past years. The results will help you decide how hot, cold, wet, or windy it might be!

Date:

Astronomy

Dec. 04, 2012 Rise Set
Actual Time 7:36 AM MST 4:36 PM MST
Civil Twilight 7:03 AM MST 5:09 PM MST
Nautical Twilight 6:26 AM MST 5:46 PM MST
Astronomical Twilight 5:51 AM MST 6:21 PM MST
Moon 10:36 PM MST (12/4) 11:23 AM MST (12/4)
Length of Visible Light 10h 06m
Length of Day
9h 00m
Waning Gibbous, 69% of the Moon is Illuminated
Dec 4
Waning Gibbous
Dec 6
Last Quarter
Dec 13
New
Dec 19
First Quarter
Dec 28
Full

Hourly Weather History & Observations

Time (MST) Temp. Windchill Dew Point Humidity Pressure Visibility Wind Dir Wind Speed Gust Speed Precip Events Conditions
12:15 AM 37.4 °F 28.2 °F 17.6 °F 45% 30.17 in 10.0 mi WSW 16.1 mph 28.8 mph N/A   Clear
12:35 AM 35.6 °F 28.0 °F 15.8 °F 44% 30.17 in 10.0 mi WSW 10.4 mph 23.0 mph N/A   Clear
12:55 AM 35.6 °F 25.5 °F 17.6 °F 48% 30.15 in 10.0 mi WSW 17.3 mph 33.4 mph N/A   Clear
1:15 AM 37.4 °F 28.2 °F 15.8 °F 41% 30.15 in 10.0 mi WSW 16.1 mph 26.5 mph N/A   Clear
1:56 AM 37.4 °F 28.5 °F 17.6 °F 45% 30.15 in 10.0 mi SW 15.0 mph 24.2 mph N/A   Clear
2:35 AM 37.4 °F 33.8 °F 15.8 °F 41% 30.15 in 10.0 mi West 4.6 mph 21.9 mph N/A   Clear
2:55 AM 35.6 °F 30.7 °F 17.6 °F 48% 30.14 in 10.0 mi West 5.8 mph - N/A   Clear
3:35 AM 35.6 °F 24.5 °F 17.6 °F 48% 30.14 in 10.0 mi SSW 20.7 mph 25.3 mph N/A   Clear
3:55 AM 37.4 °F 30.8 °F 17.6 °F 45% 30.13 in 10.0 mi SW 9.2 mph 19.6 mph N/A   Clear
4:15 AM 37.4 °F 29.8 °F 15.8 °F 41% 30.14 in 10.0 mi SW 11.5 mph 19.6 mph N/A   Clear
4:35 AM 35.6 °F 25.2 °F 15.8 °F 44% 30.14 in 10.0 mi SSW 18.4 mph - N/A   Clear
4:55 AM 35.6 °F 26.2 °F 15.8 °F 44% 30.15 in 10.0 mi SSW 15.0 mph 24.2 mph N/A   Clear
5:15 AM 35.6 °F 25.5 °F 14.0 °F 41% 30.13 in 10.0 mi SSW 17.3 mph - N/A   Clear
5:35 AM 35.6 °F 26.2 °F 12.2 °F 38% 30.13 in 10.0 mi SSE 15.0 mph - N/A   Clear
5:55 AM 33.8 °F 23.5 °F 12.2 °F 41% 30.13 in 10.0 mi SSE 16.1 mph - N/A   Clear
6:15 AM 33.8 °F 25.3 °F 14.0 °F 44% 30.13 in 10.0 mi SSE 11.5 mph - N/A   Clear
6:35 AM 33.8 °F 25.3 °F 14.0 °F 44% 30.13 in 10.0 mi South 11.5 mph - N/A   Clear
6:55 AM 33.8 °F 23.9 °F 15.8 °F 48% 30.12 in 10.0 mi South 15.0 mph - N/A   Clear
7:35 AM 32.0 °F 27.5 °F 15.8 °F 51% 30.13 in 10.0 mi South 4.6 mph - N/A   Clear
7:55 AM 32.0 °F 26.4 °F 15.8 °F 51% 30.13 in 10.0 mi SSW 5.8 mph - N/A   Clear
8:15 AM 35.6 °F 27.1 °F 15.8 °F 44% 30.13 in 10.0 mi South 12.7 mph 19.6 mph N/A   Clear
8:35 AM 35.6 °F 31.7 °F 15.8 °F 44% 30.12 in 10.0 mi SSE 4.6 mph - N/A   Partly Cloudy
8:55 AM 37.4 °F 31.4 °F 15.8 °F 41% 30.11 in 10.0 mi South 8.1 mph - N/A   Mostly Cloudy
9:15 AM 39.2 °F 31.2 °F 17.6 °F 42% 30.09 in 10.0 mi South 13.8 mph - N/A   Scattered Clouds
9:35 AM 39.2 °F 32.0 °F 19.4 °F 45% 30.09 in 10.0 mi South 11.5 mph - N/A   Mostly Cloudy
9:55 AM 42.8 °F 35.4 °F 21.2 °F 42% 30.09 in 10.0 mi SSW 15.0 mph 24.2 mph N/A   Mostly Cloudy
10:15 AM 42.8 °F 37.0 °F 21.2 °F 42% 30.08 in 10.0 mi WSW 10.4 mph 20.7 mph N/A   Overcast
10:35 AM 44.6 °F 37.4 °F 21.2 °F 39% 30.06 in 10.0 mi WSW 16.1 mph 28.8 mph N/A   Overcast
12:15 PM 50.0 °F - 24.8 °F 37% 30.02 in - West 20.7 mph 29.9 mph N/A   Unknown
12:35 PM 50.0 °F - 24.8 °F 37% 30.01 in 10.0 mi West 17.3 mph 27.6 mph N/A   Overcast
1:15 PM 51.8 °F - 24.8 °F 35% 30.01 in 10.0 mi West 23.0 mph 32.2 mph N/A   Unknown
1:35 PM 51.8 °F - 24.8 °F 35% 30.01 in 10.0 mi West 19.6 mph 32.2 mph N/A   Scattered Clouds
1:55 PM 51.8 °F - 24.8 °F 35% 30.00 in 10.0 mi WSW 27.6 mph 39.1 mph N/A   Partly Cloudy
2:15 PM 51.8 °F - 24.8 °F 35% 30.00 in 10.0 mi West 21.9 mph 38.0 mph N/A   Clear
2:35 PM 51.8 °F - 26.6 °F 38% 30.01 in 10.0 mi West 13.8 mph 29.9 mph N/A   Partly Cloudy
2:55 PM 51.8 °F - 26.6 °F 38% 30.02 in 10.0 mi WSW 23.0 mph 35.7 mph N/A   Mostly Cloudy
3:15 PM 51.8 °F - 26.6 °F 38% 30.02 in 10.0 mi WSW 15.0 mph 28.8 mph N/A   Mostly Cloudy
3:35 PM 50.0 °F - 26.6 °F 40% 30.03 in 10.0 mi WSW 12.7 mph 23.0 mph N/A   Scattered Clouds
3:55 PM 50.0 °F - 26.6 °F 40% 30.03 in 10.0 mi West 16.1 mph 24.2 mph N/A   Mostly Cloudy
4:15 PM 50.0 °F - 26.6 °F 40% 30.03 in 10.0 mi WSW 13.8 mph 21.9 mph N/A   Mostly Cloudy
4:35 PM 48.2 °F - 26.6 °F 43% 30.03 in 10.0 mi WSW 8.1 mph - N/A   Scattered Clouds
4:55 PM 48.2 °F - 26.6 °F 43% 30.04 in 10.0 mi SSW 9.2 mph - N/A   Mostly Cloudy
5:15 PM 46.4 °F 41.9 °F 24.8 °F 43% 30.03 in 10.0 mi SSE 9.2 mph - N/A   Overcast
5:35 PM 42.8 °F 35.8 °F 17.6 °F 36% 30.04 in 10.0 mi South 13.8 mph 18.4 mph N/A   Overcast
5:55 PM 41.0 °F 33.1 °F 19.4 °F 42% 30.03 in 10.0 mi SSE 15.0 mph 23.0 mph N/A   Scattered Clouds
6:15 PM 42.8 °F 38.6 °F 21.2 °F 42% 30.02 in 10.0 mi South 6.9 mph - N/A   Clear
6:35 PM 46.4 °F 40.7 °F 28.4 °F 50% 30.01 in 10.0 mi South 12.7 mph 17.3 mph N/A   Clear
6:55 PM 39.2 °F 32.0 °F 21.2 °F 49% 30.01 in 10.0 mi South 11.5 mph - N/A   Clear
7:15 PM 42.8 °F 35.1 °F 21.2 °F 42% 30.01 in 10.0 mi SSE 16.1 mph 20.7 mph N/A   Clear
7:35 PM 44.6 °F 37.4 °F 24.8 °F 46% 30.00 in 10.0 mi SSW 16.1 mph 20.7 mph N/A   Clear
7:55 PM 46.4 °F 40.1 °F 28.4 °F 50% 30.00 in 10.0 mi South 15.0 mph 27.6 mph N/A   Clear
8:15 PM 48.2 °F - 28.4 °F 46% 30.00 in 10.0 mi WSW 13.8 mph 18.4 mph N/A   Clear
8:35 PM 48.2 °F - 28.4 °F 46% 30.00 in 10.0 mi South 11.5 mph 28.8 mph N/A   Clear
8:55 PM 50.0 °F - 30.2 °F 47% 29.99 in 10.0 mi East 4.6 mph 18.4 mph N/A   Clear
9:15 PM 50.0 °F - 30.2 °F 47% 29.99 in 10.0 mi SSE 8.1 mph 18.4 mph N/A   Clear
9:35 PM 50.0 °F - 30.2 °F 47% 29.98 in 10.0 mi SSE 13.8 mph 21.9 mph N/A   Partly Cloudy
9:55 PM 48.2 °F - 30.2 °F 50% 29.97 in 10.0 mi ESE 10.4 mph 17.3 mph N/A   Scattered Clouds
10:15 PM 51.8 °F - 30.2 °F 44% 29.97 in 10.0 mi SSW 11.5 mph 16.1 mph N/A   Partly Cloudy
10:35 PM 50.0 °F - 32.0 °F 50% 29.97 in 10.0 mi South 12.7 mph - N/A   Clear
10:55 PM 48.2 °F - 28.4 °F 46% 29.96 in 10.0 mi South 15.0 mph 23.0 mph N/A   Partly Cloudy
11:15 PM 50.0 °F - 32.0 °F 50% 29.96 in 10.0 mi SW 11.5 mph 19.6 mph N/A   Clear
11:35 PM 51.8 °F - 32.0 °F 47% 29.96 in 10.0 mi SW 10.4 mph 20.7 mph N/A   Scattered Clouds
11:55 PM 51.8 °F - 32.0 °F 47% 29.95 in 10.0 mi West 8.1 mph 18.4 mph N/A   Overcast